Theta_e
326 318 310 316 313 312 307 303 296 293 293 289 283 289 293 295 296 297 298 298 299 303 303 310 309 308 305 304 307 310 313 307 305 302 299 310 329 335 335 337 338 337 335 333 333 332 335 341 347 347 347 347 347 347 347 347 346 347 347 347 346 345 346 344 343 342 341 341 342 342 342 342 340 341 340 339 340 340 341 340 340 340 341 340 341 342 341 341 342 342 343 345 344 344 344 344 344
320 311 312 314 315 307 304 298 290 285 285 283 287 287 290 292 296 295 297 296 299 308 310 314 315 315 314 315 315 314 315 318 311 314 323 330 335 336 338 338 338 335 334 332 332 331 332 335 346 347 347 347 347 347 347 347 347 346 347 346 345 344 344 343 342 341 341 339 338 338 343 342 340 338 339 340 341 340 340 339 340 339 339 339 340 339 341 343 343 343 343 343 344 344 343 343 344
317 311 312 311 309 304 300 297 294 281 285 284 281 287 291 293 295 295 295 296 304 311 311 311 311 310 311 309 307 308 307 324 324 326 327 334 330 332 339 339 336 334 333 331 332 331 331 336 345 347 347 346 346 346 346 346 346 346 346 345 344 343 342 341 342 343 342 341 339 338 341 340 340 340 340 340 340 341 340 339 339 340 339 339 339 341 342 342 343 343 343 344 344 343 343 343 344
312 315 311 308 306 300 293 290 286 285 290 283 282 286 291 293 294 296 295 297 309 308 304 308 309 311 310 309 309 314 316 320 326 327 326 330 331 337 339 337 335 334 333 332 330 329 332 338 345 346 346 345 346 346 345 346 346 346 345 344 343 343 341 340 340 341 341 342 342 341 339 339 339 339 339 340 339 340 340 340 340 340 339 339 339 340 341 343 343 343 343 343 343 343 343 343 342
313 316 307 305 301 301 291 289 286 285 287 283 289 287 290 291 297 294 302 302 305 299 299 305 308 312 313 312 310 308 312 324 327 329 329 331 338 339 338 336 334 333 331 331 330 329 333 341 344 345 345 345 345 345 345 346 345 345 343 342 341 340 339 338 341 341 339 340 341 339 336 337 339 339 339 337 337 337 337 337 337 338 338 338 338 339 340 341 342 342 343 343 343 343 342 342 342
309 308 309 306 302 302 295 291 290 288 289 286 288 291 291 293 299 298 302 300 298 298 299 304 307 308 312 314 314 315 322 317 325 328 329 332 337 339 337 334 333 332 331 330 329 329 331 338 342 344 344 345 345 345 345 345 344 344 343 342 339 339 339 340 340 338 337 341 340 340 339 340 340 340 338 337 338 339 339 340 340 339 338 339 339 339 339 340 341 341 342 341 343 342 342 341 341
312 303 301 302 299 299 292 287 284 285 290 289 290 291 295 294 300 298 298 300 300 308 301 311 310 310 310 310 316 320 320 323 325 325 331 335 338 338 336 334 333 332 330 329 329 330 334 340 345 346 345 344 344 345 345 345 344 344 343 341 338 338 338 340 341 338 336 340 340 341 341 340 338 338 339 339 339 340 340 340 340 340 340 339 338 339 339 341 342 342 342 341 341 341 340 340 340
311 305 301 293 292 294 287 287 287 285 290 289 291 295 295 298 296 297 296 299 300 305 309 307 303 305 306 312 309 318 321 322 325 331 335 337 337 337 336 334 333 333 332 328 329 332 341 339 342 342 344 344 345 344 345 344 344 343 343 342 339 338 338 339 339 338 340 342 341 341 340 337 336 336 339 339 338 338 339 339 338 338 338 338 338 338 338 340 340 341 341 341 339 339 339 339 339
305 303 300 296 292 289 283 288 287 287 288 289 292 295 305 297 296 297 296 295 300 302 306 304 304 303 304 309 308 314 319 329 332 334 336 336 336 336 335 333 333 333 332 330 328 330 332 339 340 343 342 343 345 345 345 344 344 343 342 341 338 338 338 338 338 338 340 341 341 342 341 339 336 336 336 336 336 337 337 338 338 338 337 337 337 337 337 339 340 341 340 339 338 338 338 339 338
302 301 295 292 291 291 284 283 288 290 289 291 296 299 297 296 296 295 296 299 303 302 302 301 302 303 307 311 312 315 320 331 333 333 335 336 336 336 334 333 334 333 333 332 328 331 332 340 337 339 341 343 344 345 345 344 343 342 341 340 338 338 338 337 337 341 341 342 342 342 340 338 337 335 335 336 336 337 337 338 338 338 338 338 338 337 338 338 339 340 339 337 337 337 337 338 338
297 296 296 293 285 285 286 284 284 288 293 291 294 295 297 295 295 294 295 298 297 300 303 306 310 309 310 314 310 314 319 332 332 330 334 335 336 335 333 334 334 335 333 333 331 329 330 331 338 336 339 340 342 345 344 344 342 341 341 340 338 337 337 336 336 336 340 342 342 341 339 338 336 336 336 335 337 338 338 338 339 338 337 337 337 337 337 337 338 338 338 337 336 336 336 337 337
297 293 292 285 287 285 284 287 287 288 290 292 298 297 295 296 295 297 296 300 299 301 304 306 309 308 309 311 311 315 326 330 331 333 334 334 334 334 333 333 334 335 335 334 332 328 328 328 330 337 334 334 337 341 343 342 342 342 341 339 338 337 337 337 337 336 341 342 340 340 340 338 337 336 336 337 337 337 336 337 336 337 337 337 337 337 337 337 337 338 337 335 335 335 335 335 335
296 293 290 288 288 288 287 287 289 295 288 291 297 298 295 295 296 295 295 298 298 301 301 303 312 307 306 309 312 314 324 330 331 333 333 333 333 334 334 332 333 335 336 336 334 331 330 329 329 330 332 331 331 334 337 339 340 341 341 340 339 339 340 339 337 336 339 341 341 341 339 338 338 336 336 336 337 337 337 335 336 336 337 336 336 336 337 337 336 337 336 335 335 334 334 334 334
299 294 293 291 287 285 286 287 285 292 290 293 293 294 295 295 294 295 298 299 297 298 301 302 311 310 310 313 316 317 325 330 332 332 333 332 333 333 332 332 332 333 336 336 335 335 333 332 330 329 332 333 331 331 332 336 339 340 340 339 339 340 341 341 341 341 340 340 340 341 340 339 337 337 338 338 338 337 336 336 338 336 335 335 335 335 335 336 336 335 335 334 334 333 333 333 333
304 296 289 288 286 287 286 289 289 288 291 291 296 294 294 297 294 295 299 298 298 297 307 309 311 303 301 310 307 318 325 328 331 332 332 332 333 333 331 331 330 331 334 334 332 335 334 333 331 331 332 332 332 330 326 332 333 336 337 337 338 339 340 339 339 338 337 338 337 336 336 335 335 336 336 336 336 335 333 331 335 337 335 336 335 335 335 336 335 335 334 334 334 333 333 333 332
301 294 292 293 288 287 288 288 286 289 292 291 295 293 295 294 294 298 297 297 299 305 307 310 307 303 303 309 307 320 325 327 331 332 332 331 332 332 331 329 329 331 332 331 332 333 335 335 333 332 331 331 330 329 326 326 330 330 334 335 335 336 336 335 334 332 330 330 331 330 328 327 327 327 327 329 331 334 331 327 331 335 335 334 334 334 335 335 335 334 334 334 333 332 331 330 330
301 296 293 286 289 287 288 289 289 291 289 290 291 293 297 294 295 297 298 302 307 306 306 309 308 311 310 309 310 321 324 328 329 332 331 330 330 329 329 328 328 328 330 330 331 332 334 333 333 332 331 331 331 331 331 331 329 328 328 329 331 332 332 331 330 324 322 321 322 321 323 322 322 324 324 323 323 322 324 326 331 336 335 334 334 334 334 334 335 334 334 334 333 329 323 322 322
299 292 287 289 286 288 289 290 291 291 292 293 292 292 296 292 295 300 304 306 302 305 307 307 310 310 310 310 312 323 324 327 330 330 329 328 329 327 326 326 326 325 327 327 330 331 332 332 333 332 331 331 331 331 332 331 330 328 328 329 326 325 325 323 321 320 325 316 319 319 318 321 320 318 321 328 321 322 323 325 329 334 335 334 335 334 333 334 334 335 334 334 332 326 318 312 313
294 289 289 290 289 292 293 290 292 292 293 293 293 291 295 295 296 298 299 299 303 304 305 304 308 308 312 315 319 322 325 327 329 330 328 327 327 326 326 325 324 324 325 326 327 330 331 331 332 332 332 332 332 331 331 331 331 329 327 328 328 323 324 319 319 319 316 316 314 314 316 316 316 317 318 320 320 322 322 325 329 330 332 331 334 333 333 333 334 334 334 331 328 320 314 311 313
297 293 289 287 294 295 293 291 293 291 293 293 293 293 292 295 297 296 298 297 299 301 300 304 304 306 309 314 319 321 325 327 329 329 328 328 328 328 327 325 324 323 324 325 326 329 331 330 329 332 332 332 332 331 331 330 330 326 325 328 327 322 319 319 318 317 315 314 314 314 315 314 314 315 325 326 324 318 319 322 325 326 327 325 326 324 325 326 326 327 326 323 318 312 312 311 312
297 294 290 292 293 293 294 291 292 291 292 295 293 291 292 293 295 297 295 301 298 299 299 306 306 307 313 317 318 321 324 326 328 329 328 328 329 329 329 327 325 323 323 325 327 328 329 330 330 331 332 332 332 331 330 329 330 326 323 326 328 326 322 317 317 316 315 315 314 315 314 314 315 316 317 318 318 318 318 319 319 318 317 318 320 321 320 318 315 314 312 313 312 311 312 312 312
297 294 294 294 292 293 294 290 288 290 290 294 290 294 293 293 295 295 300 297 296 301 304 305 306 311 315 317 318 321 324 325 327 328 328 328 328 328 330 329 328 327 325 325 326 327 329 330 330 330 330 331 332 331 330 330 329 328 325 325 326 327 325 322 319 317 316 317 316 315 314 315 315 316 316 317 317 317 319 318 317 317 317 318 321 321 319 317 315 312 311 311 311 309 310 310 308
293 291 292 290 291 293 293 291 291 291 293 292 291 294 293 296 294 293 299 298 297 296 299 304 306 314 318 320 319 320 322 324 326 327 328 328 328 329 330 330 328 327 327 325 326 328 330 330 330 330 329 330 331 332 331 330 329 329 326 323 325 326 326 325 324 321 319 318 317 315 317 314 313 315 314 314 317 316 318 316 317 315 317 317 319 319 318 315 313 314 312 311 309 309 309 308 309
293 292 291 293 292 292 293 292 289 289 292 293 292 293 294 292 294 292 296 298 295 292 291 299 308 315 317 318 319 320 322 324 325 327 328 329 329 330 330 330 330 330 329 327 327 327 329 330 331 330 329 330 330 331 330 329 329 329 328 324 324 323 324 325 325 324 321 320 318 318 317 317 317 314 314 312 313 315 317 316 316 317 316 316 319 317 317 315 314 313 312 312 310 307 307 308 307
293 292 292 291 290 291 291 289 287 289 290 290 292 294 294 293 292 291 295 299 296 295 306 310 314 315 316 318 318 319 320 323 324 326 328 329 330 330 331 331 331 331 329 330 330 329 328 330 331 329 329 329 330 331 329 329 329 329 329 327 325 322 323 324 323 321 321 320 320 318 316 317 315 315 314 315 311 315 314 312 315 317 316 315 317 317 316 315 313 312 312 310 307 307 306 309 307
295 294 291 290 290 291 290 290 289 290 292 290 293 291 290 291 291 292 296 295 294 302 309 311 314 315 315 317 318 318 319 320 322 324 326 328 329 329 329 330 331 330 330 331 331 331 331 331 331 330 330 330 330 330 329 328 328 328 328 327 327 324 322 321 318 320 320 319 320 319 318 318 317 317 317 313 314 314 312 311 311 313 314 312 314 316 314 314 314 310 310 309 309 309 310 311 309
294 293 293 292 292 290 292 292 291 289 292 290 293 292 292 290 292 293 290 292 302 307 310 310 313 314 315 316 317 318 318 319 320 323 323 325 327 327 328 329 329 330 330 330 332 332 333 332 331 331 330 327 330 330 330 328 328 327 328 328 328 326 323 321 320 321 319 320 320 320 318 318 318 317 316 315 313 313 311 311 313 311 311 311 312 315 310 314 311 312 313 311 312 313 314 312 312
296 294 293 292 290 289 289 290 290 292 294 289 292 291 290 291 290 293 291 294 302 305 311 311 311 314 315 316 316 317 318 319 319 319 321 323 324 326 327 327 328 329 329 330 331 333 332 333 333 332 330 328 328 330 330 329 328 327 327 327 326 325 322 322 321 320 319 319 318 319 318 318 317 316 316 314 315 314 312 313 312 311 314 312 311 312 311 309 311 311 310 313 315 314 315 315 313
296 293 292 291 291 292 290 291 291 291 294 291 290 292 291 291 291 294 288 297 301 305 310 312 311 312 313 314 315 316 317 318 317 319 321 323 325 326 326 328 327 327 329 330 331 330 331 333 334 334 332 329 329 330 330 330 329 327 326 325 324 323 322 322 321 320 320 321 320 319 319 318 317 317 316 316 314 313 312 313 312 313 314 313 310 310 310 309 309 311 315 314 314 314 315 317 314
294 291 290 291 289 288 289 290 289 291 293 290 292 285 285 291 295 291 291 300 301 302 306 311 311 309 310 311 314 315 315 313 316 319 321 322 323 323 324 325 325 327 326 326 327 328 330 332 333 334 333 331 330 331 331 331 330 328 325 325 324 323 323 322 322 321 320 320 320 319 319 319 317 317 316 314 313 313 312 312 312 313 313 311 311 310 311 311 313 314 316 315 315 315 316 317 315
295 292 291 288 287 286 289 289 290 292 291 289 292 287 286 289 293 292 293 299 302 301 304 309 309 308 309 311 312 314 315 316 318 319 320 320 321 322 322 323 323 324 323 323 325 326 327 329 331 333 331 332 329 330 331 331 331 329 326 325 325 324 323 323 323 321 320 320 320 320 320 320 318 318 316 316 315 314 314 314 314 317 314 312 312 313 316 316 316 317 316 316 316 315 315 314 311
289 291 289 285 286 285 288 290 290 293 291 290 291 285 290 292 292 290 290 299 299 299 302 306 308 309 309 309 311 313 315 315 316 316 318 319 319 321 321 322 322 322 323 323 323 324 325 327 328 330 330 331 331 331 331 331 331 329 326 324 325 324 324 323 323 323 322 320 320 320 320 320 319 319 317 317 319 319 319 319 319 319 318 318 318 317 316 317 317 316 315 316 315 315 310 313 314
288 290 285 284 283 285 287 291 287 290 290 291 290 287 285 290 289 286 286 297 299 297 297 303 306 307 308 309 311 312 313 312 313 316 317 318 319 320 321 321 321 322 323 322 322 322 324 325 325 328 329 330 331 331 331 330 329 328 326 326 325 325 325 324 324 323 322 321 320 321 320 320 320 320 319 320 322 320 320 320 320 320 319 320 319 318 317 317 316 315 315 314 312 309 310 314 316
288 286 286 286 285 285 286 287 289 289 290 289 290 288 286 289 288 286 289 294 296 297 296 298 304 307 308 308 309 311 312 313 314 316 317 318 320 320 321 319 321 321 321 322 322 323 324 324 325 326 328 328 330 331 330 330 330 328 326 326 323 325 325 325 324 323 323 322 321 321 321 322 322 322 322 323 324 323 322 321 320 320 321 320 319 318 318 318 317 316 316 315 313 313 313 313 313
288 286 283 285 284 285 287 287 289 290 288 289 288 287 291 293 293 290 289 290 294 297 297 295 298 302 305 306 307 309 310 311 314 316 317 318 318 319 321 321 320 320 321 321 321 322 322 323 323 323 325 326 328 329 328 329 329 327 326 326 325 324 324 324 324 323 323 322 322 322 322 323 324 325 325 324 324 324 323 323 322 320 319 318 318 316 314 314 315 313 314 314 312 311 311 312 310
288 287 286 286 287 287 285 288 287 289 287 287 286 288 291 293 293 293 290 289 291 294 292 292 291 295 300 302 304 306 307 310 313 314 312 315 317 318 319 320 321 320 321 321 320 321 321 322 322 323 323 326 326 327 327 328 328 327 326 325 325 325 326 324 323 323 323 322 321 321 321 323 325 325 326 326 326 324 323 320 321 320 320 318 318 317 312 312 313 310 310 309 310 309 309 311 307
289 288 287 285 286 287 288 288 289 287 288 287 287 289 291 292 292 291 288 288 289 288 290 292 292 291 293 297 299 301 303 306 310 308 310 311 313 316 318 319 320 319 319 319 320 320 321 322 321 322 323 323 324 325 327 328 327 327 327 327 326 327 327 326 325 325 325 325 324 324 324 325 325 325 324 325 326 323 325 324 323 321 319 318 317 317 319 318 314 312 310 307 311 313 312 309 306
289 288 286 285 285 284 287 289 288 287 288 285 286 287 289 289 291 290 288 288 289 289 290 291 292 292 291 293 295 297 299 299 298 299 302 306 310 312 315 317 317 318 319 319 319 321 321 322 322 323 322 323 325 326 327 327 329 329 328 328 328 328 327 326 327 327 328 328 328 327 327 327 326 325 324 324 324 323 323 322 321 322 322 319 316 314 317 314 314 312 313 314 311 314 312 307 306
289 288 287 284 283 284 287 287 288 287 288 285 284 287 289 291 291 291 288 290 290 290 292 293 293 292 293 293 293 294 294 297 297 298 298 302 305 309 313 316 318 320 320 319 320 320 320 321 322 322 322 323 324 325 326 326 326 326 327 325 329 325 325 328 328 326 326 327 328 329 329 328 327 325 325 324 325 324 324 324 323 324 322 320 319 317 315 316 317 315 314 316 313 309 311 307 309
291 286 285 283 283 284 283 286 288 288 286 286 285 285 288 290 289 289 289 289 290 291 290 291 292 293 294 295 295 294 293 295 296 297 298 298 302 306 309 313 316 318 318 318 319 320 321 320 322 322 322 322 323 324 322 326 325 325 324 321 322 326 322 317 321 319 323 325 327 328 329 329 328 327 326 325 324 325 325 325 325 322 320 314 316 317 318 319 317 315 314 313 314 314 309 308 310
290 289 286 285 285 285 286 286 286 287 287 286 287 287 289 289 289 290 290 288 289 291 289 289 289 292 294 293 292 293 295 295 295 296 296 296 298 303 308 311 314 316 317 319 319 320 322 321 322 322 323 322 323 322 323 323 321 318 319 316 316 318 317 316 319 323 325 323 325 325 326 327 328 328 327 326 324 325 325 325 322 320 317 318 319 320 320 318 317 318 317 314 314 315 313 312 310
289 289 288 288 288 287 287 287 288 285 285 285 287 281 281 282 283 286 290 285 287 288 290 291 292 292 291 291 293 294 294 294 295 295 296 296 297 300 304 307 311 314 316 318 320 321 321 322 322 322 322 322 323 323 323 323 322 324 322 323 321 322 323 321 321 323 322 322 324 323 322 325 325 325 326 327 326 324 325 325 323 321 320 320 320 320 320 319 318 317 318 317 315 315 315 313 312
287 288 289 289 288 288 288 286 288 282 281 286 284 284 277 282 285 285 284 281 285 288 287 290 290 292 291 292 294 294 294 295 293 293 294 293 295 296 300 305 309 312 315 317 318 319 320 321 321 321 322 322 322 322 322 321 323 323 324 325 325 324 324 325 322 320 324 321 321 322 324 321 324 325 324 325 325 324 324 325 322 321 319 320 317 320 319 318 317 317 314 314 315 313 313 311 311
286 289 289 290 289 288 287 288 288 283 283 286 285 283 279 280 288 285 280 281 284 285 287 288 290 290 291 293 294 294 295 294 295 295 294 294 294 296 298 302 308 312 314 315 316 317 319 320 320 320 321 320 322 321 321 322 323 323 323 323 323 324 323 323 318 319 319 318 320 320 320 320 321 322 324 324 324 324 323 322 322 321 321 320 317 317 316 315 315 312 312 313 314 313 312 312 309
288 289 291 289 290 289 288 288 285 283 283 282 283 284 280 277 281 282 281 285 287 287 288 289 290 290 291 292 294 294 295 294 292 293 294 294 294 295 296 298 304 309 309 312 314 316 318 319 318 319 320 320 320 320 320 321 322 324 323 323 322 321 321 318 313 310 316 312 317 311 315 317 318 319 321 322 321 322 320 321 321 320 319 318 315 316 315 315 314 314 314 314 313 311 310 308 308
289 291 291 290 288 288 288 285 285 284 282 280 282 282 278 279 279 281 280 282 284 286 289 290 291 292 291 292 292 292 291 290 291 293 294 295 294 294 294 295 298 304 307 307 307 309 312 314 315 316 318 319 319 319 320 321 322 321 323 322 322 320 315 309 311 310 312 311 316 312 314 315 316 316 315 317 319 319 320 319 319 318 317 316 313 313 312 312 311 313 313 312 312 310 308 310 309
292 293 290 288 285 284 283 284 281 281 275 282 282 280 280 279 280 285 284 284 286 289 288 288 290 290 290 289 289 290 291 290 291 292 292 293 292 291 293 296 298 298 302 305 308 310 312 313 315 315 318 318 318 319 319 320 321 322 322 322 321 320 315 314 312 311 309 311 314 312 313 314 313 313 312 312 314 317 317 316 317 316 316 312 314 314 313 312 311 312 311 310 310 309 308 308 308
292 289 286 288 285 284 284 281 284 278 278 279 278 279 279 276 278 281 284 282 281 285 287 289 290 291 289 288 288 287 287 288 288 289 291 291 291 292 293 295 297 300 299 303 307 308 310 312 314 315 315 316 316 317 318 320 320 321 321 321 321 320 316 315 316 315 312 314 314 313 311 310 309 309 310 311 311 312 313 313 312 313 312 313 312 312 312 312 311 311 310 308 307 307 306 305 305
290 288 287 283 279 280 277 279 276 277 276 279 276 278 279 280 283 284 284 284 285 283 286 289 290 290 289 288 288 287 288 289 290 290 290 291 292 293 294 295 294 297 300 302 304 306 307 309 311 313 314 313 315 316 317 318 318 319 320 320 320 319 317 316 317 316 314 316 314 312 310 310 307 308 307 310 307 309 310 310 310 309 308 307 307 307 306 307 307 307 307 305 305 305 304 304 303
288 287 284 282 277 276 276 275 271 272 276 278 279 279 278 279 281 287 289 292 293 291 287 287 287 288 290 290 289 288 288 289 291 292 291 292 293 294 295 296 296 296 297 299 299 300 301 304 306 310 313 311 312 313 315 316 317 318 318 319 319 317 316 316 316 315 312 315 314 313 312 311 310 312 308 309 307 306 306 307 306 305 305 304 303 302 301 298 299 300 300 301 300 300 299 299 299
288 289 288 284 282 277 274 273 276 277 279 277 278 277 275 277 282 282 289 290 289 286 284 284 284 285 286 286 287 288 289 290 290 291 292 292 292 290 292 292 293 293 294 294 294 295 296 300 303 306 309 307 309 311 313 315 315 315 316 317 318 316 317 315 315 314 312 312 312 312 312 311 312 308 308 304 301 304 303 304 303 303 302 301 300 299 299 298 298 298 297 296 296 296 294 294 293
287 287 289 284 284 283 278 276 275 273 274 274 275 278 278 282 282 285 285 285 286 288 287 284 286 285 286 288 290 292 292 292 290 289 291 290 289 288 289 290 291 292 290 291 293 293 295 297 298 302 307 307 307 308 313 315 314 314 314 315 316 314 312 314 312 310 311 313 312 313 311 310 308 305 302 301 300 302 301 301 301 300 299 297 297 297 297 297 297 296 295 295 295 294 291 291 291
285 286 284 285 287 286 278 277 278 276 274 275 274 277 280 280 286 291 285 283 286 286 286 284 285 285 284 288 291 292 292 292 290 289 289 289 287 288 288 287 286 288 290 293 294 293 295 295 295 298 300 301 304 306 311 313 314 313 312 314 313 312 312 312 312 310 310 310 311 310 308 305 303 302 300 300 299 299 299 299 297 295 295 294 295 295 295 295 294 293 292 292 292 291 290 290 290
286 282 285 286 288 287 284 279 273 274 273 276 272 277 277 277 280 282 282 286 289 287 287 287 285 283 284 289 291 292 292 292 291 288 287 287 287 287 289 288 289 291 290 289 291 294 294 293 295 299 301 301 303 305 308 310 312 312 312 312 312 313 312 313 312 310 309 308 307 305 303 301 301 300 299 298 298 297 296 294 294 292 292 292 292 291 291 291 289 288 289 288 288 287 285 285 285
286 283 288 287 279 280 279 276 271 269 271 271 271 274 275 277 281 281 282 281 287 288 287 285 287 287 288 289 289 288 288 289 291 291 290 289 288 289 289 291 290 290 290 290 293 295 294 293 293 299 301 303 305 305 306 308 311 312 312 312 312 312 312 312 311 309 307 307 304 303 303 301 299 298 297 297 296 293 292 290 291 289 289 289 288 288 287 287 287 286 286 284 284 283 282 282 284
287 287 286 285 284 281 277 279 275 275 271 269 273 271 279 279 278 279 287 286 285 288 289 289 288 288 288 288 289 289 289 290 291 291 291 290 290 289 289 289 290 291 291 292 294 296 296 296 297 300 302 304 305 305 305 307 307 309 309 309 310 311 310 310 308 307 307 305 303 302 300 299 298 297 297 296 293 291 290 289 288 288 287 286 286 286 286 286 285 284 284 283 282 284 283 282 282
283 283 281 283 282 283 280 279 277 278 268 266 268 271 276 278 281 283 289 290 291 289 288 287 288 288 288 288 289 289 289 290 290 291 291 290 290 290 289 288 287 287 289 293 296 299 299 299 300 301 302 304 304 305 305 306 306 307 307 308 307 308 307 307 306 306 306 303 301 300 299 298 295 295 294 292 290 290 289 288 288 288 287 286 286 285 285 285 284 284 283 283 282 283 283 282 282
285 285 282 284 280 279 278 279 278 272 275 272 267 276 279 282 283 288 288 290 290 289 286 288 287 288 288 288 288 287 289 289 289 288 288 289 287 287 287 288 287 288 291 293 297 299 299 300 302 302 303 304 304 304 305 305 306 306 307 306 306 306 305 305 305 303 301 299 298 297 295 294 294 291 291 290 289 288 288 288 288 287 286 286 284 283 284 284 284 284 283 282 282 283 283 282 281
Wind_Speed
4 4 1 1 2 1 2 6 1 3 2 0 1 0 1 0 1 1 1 2 0 0 1 1 1 4 2 4 6 5 1 3 3 7 4 1 0 6 5 7 7 5 4 2 2 2 1 1 6 6 6 6 7 8 10 10 10 9 9 10 11 13 14 14 13 13 13 13 14 14 14 15 14 15 15 14 15 15 14 15 15 14 13 13 14 16 17 17 17 17 16 17 16 17 17 17 18
2 2 2 0 1 1 0 1 4 3 5 4 2 1 2 1 1 3 5 2 1 1 1 5 6 7 8 8 8 4 3 4 2 1 1 2 7 5 6 7 7 7 3 3 3 2 2 2 5 6 6 7 8 9 10 11 10 9 10 11 10 11 13 12 12 12 13 13 12 12 15 15 14 13 15 15 14 14 14 14 15 14 14 14 15 15 17 17 17 16 15 15 16 16 17 17 17
1 2 2 2 3 5 3 4 1 1 2 1 3 5 1 3 4 4 5 2 3 5 3 3 3 3 1 1 4 2 1 2 3 1 3 5 7 5 8 7 6 6 5 3 3 2 2 3 4 6 7 8 9 10 11 11 10 9 11 11 10 11 12 11 12 13 13 13 12 12 14 14 14 14 14 15 16 15 15 15 15 14 15 14 14 16 16 16 16 15 16 16 17 17 17 17 16
2 2 3 2 1 4 1 3 4 3 1 3 3 3 2 4 4 4 2 2 4 3 1 1 3 2 1 5 1 1 3 2 0 3 6 6 1 7 7 8 6 5 4 3 3 3 2 4 4 8 8 9 10 11 10 11 10 11 10 12 11 11 11 9 11 13 13 12 13 14 13 13 13 14 14 14 15 15 14 15 15 14 15 14 14 16 16 16 16 15 14 14 15 16 15 15 15
2 1 2 2 3 1 2 0 4 2 2 4 1 3 3 3 4 3 2 2 3 1 1 1 3 3 0 4 1 1 2 2 2 1 3 2 5 7 8 7 6 6 4 3 3 2 3 5 4 8 9 9 10 11 10 10 11 11 12 11 11 10 9 8 14 13 12 13 14 14 12 12 13 14 14 13 14 14 13 14 14 14 14 14 14 15 15 15 15 16 16 16 16 15 15 14 14
4 1 4 1 0 2 4 1 1 0 5 5 1 1 3 6 7 5 4 1 2 2 3 1 3 4 2 1 1 2 2 4 2 3 2 5 9 9 9 6 6 6 3 3 3 3 3 4 3 9 10 9 10 11 10 11 11 12 11 11 10 9 7 11 12 11 9 12 12 12 12 12 12 13 13 13 13 13 14 14 13 14 14 13 12 13 15 14 14 14 15 15 15 15 15 14 14
1 4 5 3 2 4 3 2 2 3 5 6 1 1 5 5 5 7 2 1 0 1 3 1 2 4 4 1 1 0 2 1 2 2 3 7 10 8 9 6 7 6 4 3 3 3 4 6 6 6 8 10 9 10 10 12 12 12 11 11 9 7 6 11 10 10 8 11 11 12 11 12 12 12 12 12 13 13 13 13 13 13 13 12 11 12 14 15 14 15 15 15 15 15 14 14 14
2 2 2 2 1 2 2 0 3 5 1 5 1 2 4 7 5 5 5 2 2 1 1 1 0 3 1 2 1 2 3 1 2 8 10 9 7 8 7 7 8 7 4 3 3 3 6 8 8 8 7 10 10 10 10 11 12 11 10 11 9 7 6 8 9 10 10 11 11 11 11 12 10 11 12 12 12 12 12 13 12 12 12 12 11 11 13 13 13 15 15 15 14 13 13 13 13
5 6 0 4 1 3 2 1 2 3 5 1 4 5 2 3 4 5 4 1 1 0 3 1 2 3 2 2 0 2 2 2 6 10 10 10 8 8 6 7 9 6 4 3 3 4 4 8 8 8 6 5 9 10 9 10 11 11 11 10 9 7 7 9 9 9 11 10 10 10 13 11 10 9 11 11 10 11 11 11 11 12 12 11 11 11 12 13 13 14 16 15 13 13 13 13 12
2 2 1 2 3 1 3 3 1 1 2 1 1 1 4 3 3 1 3 1 2 4 1 2 2 4 2 4 1 2 1 1 8 9 9 9 9 8 7 6 7 9 7 3 3 4 4 7 8 7 6 5 7 8 8 8 10 10 11 10 9 8 8 7 9 11 10 10 10 11 12 11 9 10 10 10 10 10 10 10 11 11 12 11 10 10 11 11 12 13 15 14 13 13 12 12 11
1 5 2 3 2 1 2 2 3 4 1 4 2 2 3 4 4 2 1 1 1 3 1 2 5 5 3 0 2 2 1 3 10 10 10 9 8 9 8 7 8 8 7 4 3 3 4 4 8 7 6 6 7 9 7 6 9 10 11 10 9 8 8 8 7 8 10 10 10 11 11 11 10 9 10 10 10 10 10 11 11 11 11 10 10 9 9 11 11 12 13 13 13 13 12 11 10
1 2 3 3 1 4 3 1 3 6 6 1 2 1 3 5 2 3 2 6 2 1 3 3 3 5 5 1 1 2 2 4 6 10 9 8 8 8 9 7 6 5 6 5 3 3 3 3 4 6 7 7 6 7 7 6 9 11 11 10 9 9 8 8 9 8 12 10 10 11 11 11 10 9 10 10 9 9 10 10 10 10 10 10 10 9 9 9 10 10 11 11 12 13 12 12 10
4 1 5 4 0 1 1 0 2 2 3 3 4 1 4 5 3 4 4 3 1 4 2 5 5 3 4 3 2 2 4 6 3 8 9 8 8 8 8 8 7 7 6 4 4 3 3 3 3 3 5 7 7 8 6 7 8 9 9 9 7 5 5 8 8 8 9 9 10 11 11 10 10 9 9 9 10 9 9 7 8 9 9 9 9 8 9 9 9 9 9 10 11 12 12 12 11
2 3 4 1 1 2 2 1 1 1 3 1 1 1 4 3 3 6 7 4 4 4 1 2 4 4 2 1 2 2 6 6 4 6 7 6 7 9 11 8 8 8 6 5 5 4 4 3 3 3 4 4 4 5 8 7 7 8 8 7 6 6 7 8 7 9 10 8 7 8 10 9 10 9 8 9 9 9 8 7 6 9 9 8 8 8 8 8 7 7 8 10 10 11 11 11 11
1 1 5 4 1 0 2 1 2 2 3 1 2 5 2 1 3 4 7 6 6 2 1 0 3 0 5 7 4 8 9 8 7 5 6 6 7 8 11 9 8 8 7 5 6 5 4 3 3 3 4 4 4 3 4 5 8 8 8 7 7 8 8 8 7 7 8 8 7 8 9 8 8 9 9 8 7 7 7 7 7 6 8 8 8 7 7 6 6 6 8 9 9 10 10 11 10
3 4 3 2 0 1 1 1 0 2 5 4 0 3 5 1 1 6 4 2 1 1 1 3 0 1 2 8 3 7 8 9 8 5 6 7 7 7 8 9 7 6 6 6 6 5 4 4 3 3 2 3 2 2 3 4 6 8 7 7 8 7 7 8 7 7 8 8 8 8 8 7 7 6 9 6 7 7 6 5 6 6 6 7 7 6 6 5 5 6 7 8 9 9 9 9 9
1 2 1 3 2 2 2 2 4 1 4 3 2 4 7 2 0 0 1 1 6 4 1 1 2 1 3 2 2 6 7 9 8 8 7 7 7 6 6 7 6 5 5 7 4 5 5 3 4 3 2 3 3 3 3 3 3 7 6 7 8 7 7 7 8 7 7 7 7 7 7 5 4 4 4 4 5 4 5 5 5 4 6 6 6 5 4 4 4 5 6 7 8 8 8 8 8
2 2 3 0 2 3 4 4 7 1 1 3 3 5 6 2 1 1 1 5 3 1 1 4 1 1 2 3 2 6 9 12 10 10 9 8 7 6 6 7 7 7 7 6 6 6 6 6 6 5 3 3 3 2 2 2 2 3 4 4 3 4 5 6 5 4 4 3 5 4 3 3 3 3 3 4 3 3 3 4 5 5 6 5 4 4 4 4 4 4 5 7 8 7 7 6 5
3 2 2 4 4 4 5 3 4 1 3 3 4 3 5 6 8 3 3 0 1 1 3 1 2 3 3 1 4 11 11 11 11 10 11 11 10 9 8 7 7 6 7 7 6 8 7 6 6 7 6 4 5 3 3 3 3 2 2 4 3 3 4 4 4 3 3 3 3 3 3 3 3 2 2 2 2 3 2 4 5 5 5 4 4 4 3 3 5 5 7 7 7 6 4 4 4
0 1 2 4 4 3 5 3 2 6 0 2 4 3 2 2 5 2 3 5 1 7 5 1 3 5 2 3 5 10 12 12 11 12 11 10 9 8 8 9 9 8 8 7 7 6 7 6 6 5 7 6 5 3 3 3 2 1 1 3 3 2 2 3 3 3 3 3 3 3 3 3 2 2 3 4 3 2 3 4 5 6 6 7 7 5 6 8 8 7 7 6 4 3 3 4 4
1 1 3 2 1 3 1 2 5 5 3 1 4 1 3 2 4 4 4 7 4 5 6 10 12 10 8 8 9 10 13 12 11 11 11 11 9 8 10 9 10 8 6 5 5 8 9 8 7 6 6 7 6 5 4 4 3 1 2 2 3 3 2 1 2 3 2 3 3 3 3 2 2 2 1 1 1 1 1 1 2 2 2 2 4 2 3 3 4 3 4 3 3 3 4 4 4
1 4 1 3 1 1 5 2 4 2 2 2 2 7 8 2 1 4 10 8 8 11 13 11 7 8 12 12 11 10 14 14 13 12 13 12 13 10 8 5 3 3 5 6 8 8 9 7 8 7 7 7 8 6 6 4 3 4 2 3 3 3 2 2 2 2 2 2 2 2 3 3 2 2 1 1 1 1 1 1 1 1 1 1 2 1 1 2 2 2 3 3 3 2 2 2 2
2 2 2 2 2 2 1 3 2 1 1 5 5 4 4 7 1 3 7 11 3 2 2 8 6 9 12 12 13 12 13 15 15 15 14 14 13 11 10 8 7 8 7 7 6 6 6 7 9 8 8 8 9 5 5 4 4 3 3 3 4 4 3 4 3 3 3 3 3 2 4 3 2 2 1 1 1 0 1 1 1 1 0 0 1 0 1 1 1 1 2 2 2 3 3 3 4
2 4 3 4 1 4 4 5 3 3 6 5 3 1 4 5 6 0 5 6 1 3 4 4 6 5 6 10 13 17 17 17 18 16 15 15 15 14 11 10 8 6 7 7 7 6 7 9 8 9 8 8 7 8 7 6 5 4 5 4 4 5 4 5 5 4 3 4 3 3 3 4 4 4 3 2 2 0 2 1 1 1 1 0 1 1 0 1 1 1 1 2 2 2 3 4 4
1 2 1 5 4 3 5 4 3 3 4 1 2 3 3 2 2 2 8 9 3 4 2 4 8 8 7 10 13 12 14 13 12 12 10 9 10 10 9 8 8 7 9 9 8 7 8 8 8 10 9 9 7 7 7 6 6 5 5 4 5 4 4 5 4 4 4 4 3 3 3 4 2 2 3 3 2 2 2 1 1 1 1 1 1 2 1 2 2 1 1 2 2 3 2 3 3
0 2 4 4 6 6 5 4 1 3 1 2 3 3 1 1 2 3 10 5 3 1 4 4 7 9 10 11 12 12 12 14 12 11 13 10 8 11 11 10 9 9 9 8 8 9 7 8 9 11 9 9 7 7 6 6 6 6 7 6 6 4 5 4 4 4 4 4 4 3 4 4 4 4 4 3 4 4 3 1 2 3 3 2 2 3 2 2 3 2 2 2 3 3 4 3 2
0 4 4 6 10 5 2 1 0 1 1 4 5 0 0 2 2 8 1 3 5 4 3 2 7 11 11 10 10 9 11 13 15 11 7 8 10 12 12 10 10 10 8 9 8 7 7 8 9 9 8 7 7 8 7 7 6 6 6 6 5 6 5 5 4 4 4 4 4 4 4 4 4 4 4 4 3 3 3 3 5 2 3 4 3 4 2 3 2 3 4 3 3 4 4 2 2
5 2 6 4 6 2 5 3 3 1 0 2 5 1 1 1 1 10 2 1 2 7 3 5 5 8 10 10 10 9 9 9 6 7 14 13 12 11 12 11 11 10 10 9 8 7 7 9 9 9 9 7 8 8 7 6 7 6 6 6 6 6 4 5 5 4 5 4 3 3 3 4 4 4 4 4 5 5 5 5 3 3 5 3 4 3 2 2 3 3 3 3 3 2 4 3 2
4 2 5 7 7 5 1 5 3 1 1 4 4 1 1 1 6 6 2 0 1 5 6 6 8 7 7 7 7 7 10 7 7 9 13 13 10 9 13 11 11 11 8 9 9 9 9 9 9 9 9 8 9 9 8 7 6 6 6 7 6 6 6 5 5 6 5 4 5 4 4 4 5 5 5 5 5 5 5 5 4 5 5 3 2 3 3 2 2 3 4 2 2 2 3 5 2
2 2 2 7 6 5 4 0 1 2 1 4 0 4 6 8 14 3 0 5 3 3 4 7 6 5 5 5 7 8 5 5 8 12 11 10 10 10 11 9 10 10 8 8 9 11 9 7 7 7 9 10 11 9 8 7 7 6 6 6 5 6 5 6 6 5 5 5 5 4 5 5 5 5 5 4 5 4 4 4 5 5 5 4 3 3 3 3 3 3 3 0 3 2 4 5 5
3 2 1 2 3 6 2 1 2 4 1 3 1 4 7 6 12 1 3 4 8 7 6 7 6 5 5 6 6 8 8 8 12 12 10 8 8 8 10 8 9 9 6 7 11 11 10 9 8 7 9 10 10 9 9 8 7 6 6 5 5 6 6 6 5 5 5 5 5 5 5 5 5 5 5 5 5 4 4 4 5 6 3 3 3 3 3 2 3 3 1 3 3 4 4 5 3
2 1 6 1 4 6 7 2 4 7 0 0 4 3 9 7 8 2 3 4 4 7 6 7 7 7 7 6 7 8 10 8 8 6 7 8 7 8 9 10 8 8 10 9 8 7 9 8 8 8 8 10 10 10 9 8 7 6 6 6 5 5 5 6 5 6 6 5 5 5 5 5 5 5 5 4 4 4 4 4 5 4 3 3 3 2 3 4 4 4 5 4 3 5 3 4 3
3 4 1 2 1 5 6 0 2 1 3 1 4 6 2 6 3 2 1 4 5 7 7 6 7 8 7 7 8 8 8 6 7 9 9 9 9 8 8 7 8 9 8 7 8 7 8 8 8 9 9 10 9 9 8 7 6 6 6 6 7 6 6 6 5 5 5 5 5 5 5 5 5 5 5 5 5 4 4 4 3 4 3 3 3 3 3 3 2 2 4 2 2 4 3 6 7
3 2 3 2 2 2 4 4 1 0 2 4 1 3 6 3 2 2 1 4 3 6 8 6 6 6 7 6 6 7 8 8 11 12 14 12 10 10 9 8 8 7 7 8 7 9 10 9 9 9 8 8 9 9 9 8 7 7 6 6 6 7 7 6 5 4 5 5 5 6 5 6 6 6 6 6 5 4 4 4 4 3 4 4 3 3 4 3 3 3 4 4 4 4 5 6 6
5 2 1 3 3 5 4 2 1 3 2 5 3 5 10 11 8 4 0 3 5 8 6 4 6 7 6 6 6 7 8 9 14 13 12 11 10 9 8 8 7 7 7 8 8 7 7 7 7 8 8 8 7 7 7 7 6 6 5 6 6 6 5 4 4 4 5 5 5 6 6 6 6 6 6 6 6 6 5 5 4 3 3 3 3 3 3 3 3 3 4 4 1 2 3 5 5
6 4 3 1 3 4 4 6 2 2 4 4 5 7 11 13 12 6 2 2 6 8 5 7 6 5 5 7 7 8 9 12 14 8 5 6 8 9 9 8 7 7 7 7 9 8 8 7 7 7 8 8 6 6 6 6 6 7 7 4 5 6 4 4 4 5 5 5 5 5 5 5 5 6 6 7 6 5 5 5 6 4 5 4 3 3 4 4 5 3 4 4 4 3 4 5 3
4 4 1 4 3 6 3 3 2 2 0 5 6 7 9 9 10 6 1 0 1 5 7 9 7 6 6 7 9 10 10 15 10 4 6 7 8 8 8 7 8 7 7 8 9 10 10 11 9 11 8 7 7 7 7 8 7 6 6 8 8 5 5 5 6 5 5 6 6 6 5 5 4 5 5 4 6 6 7 7 6 3 3 3 4 6 4 3 3 3 1 1 2 3 4 2 2
6 2 0 5 2 5 3 2 3 4 4 2 1 4 10 10 11 8 1 0 6 7 8 9 10 8 7 8 11 12 13 6 6 6 6 6 8 8 8 8 8 10 11 10 11 13 11 10 12 11 8 9 9 10 9 8 9 8 7 7 5 5 5 6 6 5 7 6 7 7 6 6 5 5 5 4 5 3 3 3 4 5 5 4 4 3 2 3 2 2 2 2 2 3 4 1 2
3 4 1 2 5 4 9 3 2 3 1 7 1 3 10 10 11 8 4 7 7 6 9 9 8 8 9 10 11 10 6 12 6 9 6 6 8 8 8 9 10 13 12 13 12 11 11 11 11 9 9 10 9 10 9 10 7 7 7 5 7 5 5 7 7 6 6 7 7 8 7 6 5 4 4 5 5 4 4 3 4 5 4 4 4 4 3 4 4 3 3 3 3 2 4 1 1
7 3 2 4 2 2 3 2 2 3 1 2 0 2 9 7 6 9 7 7 7 8 7 9 6 9 11 14 11 8 10 12 12 11 12 9 7 7 6 8 11 11 10 8 10 12 11 10 10 10 10 10 9 10 10 9 8 7 6 5 5 6 5 4 5 4 5 5 5 5 6 7 5 5 4 4 4 4 4 5 6 4 5 4 4 4 5 5 4 3 3 4 3 3 1 1 2
4 5 3 1 3 3 2 3 3 1 0 1 2 6 8 7 7 7 4 3 5 8 5 6 6 8 9 5 4 9 13 12 12 11 10 7 8 11 13 12 8 9 11 12 12 12 10 13 12 12 11 10 9 9 10 8 6 5 4 2 3 2 0 3 4 5 5 4 4 5 4 4 6 6 6 6 6 6 5 6 4 4 4 4 4 5 5 4 3 4 4 3 4 4 2 1 2
5 3 5 3 2 3 3 3 2 3 2 3 1 3 6 4 5 8 10 2 4 4 4 10 11 9 6 8 13 10 9 8 11 12 12 9 10 8 7 7 9 10 11 12 11 12 11 11 11 10 9 8 10 10 10 9 9 9 7 7 7 6 7 6 7 7 5 4 4 3 4 5 4 4 6 7 8 6 7 6 7 6 5 3 3 2 2 2 2 3 4 4 4 4 3 0 0
6 6 9 5 4 3 2 2 1 2 1 1 2 8 7 5 5 5 4 3 8 7 5 9 8 9 7 11 12 11 11 11 9 9 9 7 9 8 10 10 11 11 13 11 10 11 12 11 11 11 10 9 9 9 9 9 9 9 11 12 11 10 10 8 5 4 5 4 4 5 4 3 4 5 5 5 4 5 4 5 3 2 2 3 3 3 3 3 2 2 2 3 3 2 3 2 1
6 3 10 8 6 5 7 4 4 4 1 3 1 1 4 6 10 4 0 2 7 8 7 10 11 10 10 11 13 12 12 11 11 12 12 11 8 10 13 13 12 15 13 9 9 9 12 13 11 11 10 10 9 9 10 11 11 10 11 11 10 10 10 9 7 5 5 6 6 5 4 4 5 5 6 5 6 5 5 4 3 3 3 3 4 3 3 3 4 3 2 3 4 3 3 4 3
2 5 9 6 8 7 2 3 2 0 2 9 1 0 2 6 7 4 1 6 8 9 8 9 9 10 12 13 14 13 13 10 8 9 11 12 12 12 11 10 11 8 6 8 10 11 10 9 10 9 10 9 8 10 11 11 11 12 11 10 10 8 8 6 5 4 6 4 5 3 4 4 5 5 5 5 5 4 4 4 4 4 4 5 5 4 4 5 5 5 5 5 4 3 2 2 3
1 5 7 5 6 3 2 3 2 0 1 11 6 2 4 9 4 3 2 2 7 9 10 11 11 11 10 10 11 10 7 6 7 11 12 11 10 9 8 6 4 8 7 6 6 5 6 6 8 9 10 9 9 10 11 12 12 10 10 10 12 9 6 4 5 5 5 5 6 5 4 4 4 3 3 3 4 4 5 5 5 5 4 5 6 5 3 5 5 5 5 4 5 6 2 3 5
5 6 6 5 5 2 3 3 3 1 4 12 3 2 3 8 4 8 6 7 7 9 8 6 8 9 10 8 9 8 7 6 7 9 10 10 5 5 4 8 8 4 6 6 7 8 7 8 9 11 11 9 9 11 11 12 11 11 11 12 12 11 9 8 7 6 5 5 6 5 5 5 4 4 3 2 3 4 5 5 7 6 6 5 7 7 4 4 5 6 5 5 4 4 4 5 6
7 2 4 5 1 1 2 2 1 2 10 3 1 1 3 8 4 6 7 3 3 6 7 9 10 11 7 6 6 6 5 5 6 7 9 7 6 5 3 6 6 7 5 7 7 7 9 9 9 11 9 10 9 10 11 12 11 12 11 12 12 11 11 10 10 10 9 9 8 7 4 4 4 4 4 4 4 5 5 5 5 6 5 5 5 4 4 4 4 5 5 5 4 5 4 5 5
5 6 6 7 2 1 4 0 4 8 6 1 1 2 1 16 9 7 6 9 6 6 10 12 11 12 8 7 7 5 4 5 7 7 7 6 7 7 7 6 5 6 8 7 8 7 7 7 9 11 11 9 10 10 12 12 11 11 11 11 11 10 10 10 10 10 9 9 7 7 7 6 5 5 4 6 3 5 5 7 6 7 5 4 5 4 3 3 4 3 4 5 5 4 4 5 5
8 10 8 8 4 4 7 3 2 5 5 3 0 1 6 3 6 13 15 16 16 13 9 11 10 11 11 8 7 6 7 6 7 6 6 6 7 6 6 6 6 6 5 6 5 5 5 6 6 9 10 8 7 8 10 10 11 11 10 11 10 9 10 10 9 9 9 8 8 9 9 8 8 8 8 6 6 5 5 4 6 6 5 6 6 5 5 4 4 4 5 6 6 4 5 6 6
11 4 10 8 8 6 9 5 11 8 7 1 3 1 8 4 4 3 13 9 8 7 6 6 7 9 8 7 9 11 10 8 5 5 5 5 5 4 4 3 4 4 4 4 4 4 4 6 6 8 8 7 8 9 9 10 10 9 9 9 9 8 9 9 8 8 9 8 7 9 8 8 8 7 8 6 5 5 6 6 5 7 7 6 5 5 5 5 5 6 6 6 5 4 5 5 5
2 3 4 4 10 5 3 5 3 2 3 2 2 7 3 5 4 7 6 8 9 10 10 5 10 6 5 7 9 9 8 7 5 5 5 4 4 3 3 2 2 1 2 1 3 4 4 6 5 7 8 7 7 8 8 9 9 8 8 9 10 9 8 7 6 5 6 8 9 9 9 8 6 7 5 7 5 6 7 7 6 7 6 6 5 6 6 6 6 6 6 7 7 4 7 8 5
4 5 8 4 3 5 5 3 1 1 3 9 2 7 7 7 9 12 3 2 8 7 8 6 8 6 4 8 9 8 7 6 5 4 4 4 3 3 3 3 2 2 2 4 4 4 5 5 5 5 5 4 6 7 8 8 8 8 9 9 8 8 8 9 9 8 9 7 8 7 8 6 6 7 8 6 7 5 6 7 7 6 6 6 6 6 6 6 6 7 7 7 7 4 6 6 5
8 6 8 3 3 4 5 6 1 1 6 7 3 9 4 2 10 3 6 9 12 9 7 7 6 5 6 9 9 8 5 5 4 3 3 3 3 3 4 3 4 5 5 4 5 3 3 4 5 6 5 7 7 7 8 8 9 9 9 9 9 9 9 9 9 9 8 8 6 7 7 7 7 7 7 7 7 8 7 6 7 6 5 6 7 6 7 7 8 7 7 7 5 5 7 5 5
5 5 4 8 5 5 1 3 4 4 6 5 3 1 4 8 9 5 5 3 7 9 6 2 6 6 8 9 9 7 5 5 5 4 3 3 3 3 3 4 3 3 3 3 2 2 2 3 3 5 7 7 7 6 6 6 7 7 8 9 9 8 7 8 7 8 9 10 10 9 9 9 8 8 8 9 8 7 7 6 7 6 6 6 6 6 6 6 7 8 6 7 5 7 9 8 5
1 3 2 1 2 1 4 6 2 5 5 1 9 2 11 7 6 6 9 9 8 10 12 12 9 6 7 7 8 7 5 5 4 4 4 3 4 4 4 3 3 2 2 2 2 1 3 4 4 4 4 3 4 5 5 6 6 5 6 5 6 7 8 9 9 10 9 9 10 10 10 9 10 8 8 8 8 8 8 8 6 7 7 6 7 6 6 7 7 7 5 7 4 6 8 7 5
3 3 4 1 0 2 4 1 5 5 4 3 2 6 8 7 8 8 10 13 14 11 9 7 6 7 7 5 6 6 6 5 4 4 4 4 4 4 4 3 3 3 2 1 2 3 2 2 3 4 5 5 5 5 5 5 5 5 7 8 7 7 8 7 9 9 10 9 9 9 9 9 9 8 9 9 8 8 8 8 8 7 8 7 7 7 5 6 8 8 6 7 6 6 8 6 6
6 9 8 8 7 4 6 9 4 1 1 5 1 13 5 6 3 9 11 12 14 10 3 7 5 6 7 6 5 5 6 5 4 4 4 4 4 4 3 2 1 1 1 2 2 1 2 2 2 2 3 3 4 4 5 6 6 6 8 8 8 6 8 7 9 8 9 9 9 8 9 9 9 7 8 9 9 7 7 8 9 8 7 7 7 7 5 6 8 9 8 5 7 7 7 5 5
Wind_Direction
332 351 322 158 67 114 50 360 123 318 53 306 339 42 185 278 229 80 168 3 147 244 251 37 61 115 167 209 169 139 117 130 202 134 212 228 48 98 117 121 122 114 114 101 82 61 74 61 90 94 105 109 118 126 120 115 114 109 105 99 93 96 91 89 91 91 83 80 82 86 92 85 84 81 80 85 86 85 83 81 78 76 77 80 80 81 79 76 75 75 76 77 78 77 75 76 75
335 7 47 325 325 54 310 114 96 353 43 37 240 98 241 271 83 188 182 182 205 114 112 109 92 102 64 83 123 138 40 36 180 163 152 140 106 98 132 125 127 123 117 108 90 88 85 67 78 96 111 120 125 118 118 117 112 114 107 95 94 93 94 94 97 93 85 80 82 88 83 81 80 86 87 84 84 82 83 81 83 85 85 86 90 90 82 78 77 78 80 83 82 79 78 77 77
326 73 69 17 19 75 88 34 327 65 61 328 278 213 331 136 177 201 213 201 176 144 142 100 106 60 8 330 37 43 223 102 99 206 89 120 124 151 129 115 118 118 117 105 94 91 61 38 78 102 108 120 124 119 119 113 117 114 100 90 80 79 92 97 92 85 86 91 95 85 78 85 88 84 85 86 86 87 86 86 84 84 85 90 91 84 82 79 78 78 80 82 82 81 79 78 79
91 49 163 75 269 31 56 25 88 121 274 218 312 278 192 172 212 195 231 213 164 113 15 359 55 270 95 51 130 55 59 126 15 123 125 156 115 133 118 118 110 104 89 85 87 61 43 27 90 104 116 121 119 118 118 115 113 104 88 85 81 85 88 94 94 93 92 96 96 88 84 88 87 88 87 87 88 86 83 83 85 91 93 90 85 88 84 79 75 76 80 82 84 83 81 81 83
138 5 93 116 103 12 101 120 137 102 332 199 263 273 256 216 173 179 150 152 180 106 355 130 79 342 4 124 124 114 232 109 113 54 105 91 119 129 114 116 112 103 92 77 67 47 40 62 98 105 122 124 121 116 118 116 111 101 89 85 85 88 96 96 91 90 94 87 83 86 86 84 86 86 84 84 85 87 90 89 88 86 86 90 94 90 86 82 79 76 80 83 83 82 84 84 82
58 45 5 83 41 173 58 61 6 197 214 149 177 245 219 213 153 181 149 207 253 255 215 169 164 194 25 355 177 107 199 142 169 92 117 141 133 130 125 118 111 103 99 81 67 60 57 75 109 121 122 121 122 122 122 113 105 96 94 92 90 92 98 100 95 88 89 91 89 88 92 84 82 82 86 87 87 88 85 83 80 80 82 84 86 88 88 84 81 79 80 81 82 81 80 83 83
263 44 359 33 30 53 164 138 232 203 276 160 208 239 201 199 175 133 148 102 244 52 173 186 131 110 85 306 28 148 243 185 111 174 128 137 128 124 129 116 111 109 104 93 85 77 70 86 75 98 109 119 123 118 117 114 104 101 101 100 95 94 98 106 100 103 98 90 92 94 95 85 80 86 89 86 87 87 87 85 84 83 81 85 91 92 90 87 84 80 80 81 79 79 80 79 82
44 137 323 103 280 43 55 157 241 157 269 164 200 244 218 175 145 140 176 129 209 166 100 297 279 109 154 26 144 288 355 313 156 113 121 128 130 124 123 122 117 115 109 104 97 78 84 83 78 77 90 119 124 119 110 108 108 108 108 105 100 97 96 102 102 105 105 98 97 102 96 93 85 89 89 91 90 90 90 91 90 90 88 91 97 100 92 87 82 77 78 80 81 81 81 82 83
7 83 254 70 63 43 54 299 269 247 283 281 283 213 193 157 144 131 157 248 33 136 167 269 252 86 229 35 61 267 322 31 110 117 128 131 132 131 127 130 130 128 113 109 90 91 89 88 79 69 59 74 120 127 122 115 113 113 108 104 104 104 100 97 105 106 99 96 95 103 98 96 97 94 91 93 91 85 82 83 84 82 85 86 94 99 96 87 85 80 77 80 84 86 86 86 84
39 52 282 122 132 245 1 299 25 200 233 246 234 184 150 178 136 105 148 107 191 130 229 274 238 107 140 108 318 6 70 130 117 114 131 136 131 130 126 125 134 135 130 118 100 101 101 94 84 77 71 82 103 126 126 122 124 123 116 108 108 109 107 110 113 110 110 108 111 105 103 105 105 105 100 95 93 93 92 89 87 87 85 86 90 93 97 97 86 83 82 85 87 87 88 88 85
350 14 134 78 32 70 222 263 269 312 278 312 280 231 188 136 124 111 89 149 0 156 251 284 44 112 94 141 233 248 275 168 135 141 144 139 135 134 131 130 137 141 137 125 115 95 91 94 91 86 82 84 92 115 130 132 124 116 116 115 116 123 124 126 119 112 115 119 118 119 114 110 105 106 105 98 93 91 92 92 91 89 85 89 95 95 93 90 86 83 81 83 83 83 81 81 82
342 23 10 100 165 158 236 181 280 281 299 327 161 147 190 133 107 121 130 128 216 142 182 163 184 146 68 10 308 330 142 192 163 144 147 141 136 132 132 130 136 137 140 126 116 98 85 80 87 88 84 79 74 109 131 121 118 116 118 123 127 133 145 139 131 125 101 106 117 117 112 114 112 107 105 107 110 107 100 96 94 91 97 96 96 93 96 95 89 83 77 79 81 82 79 77 76
108 96 81 90 218 158 159 204 276 318 339 275 172 175 134 113 182 184 162 100 108 140 302 219 130 76 126 176 255 294 179 202 196 156 151 149 141 133 129 135 144 142 142 129 125 103 101 89 83 85 94 87 87 103 111 109 115 117 120 124 125 131 116 103 123 134 101 98 113 113 118 111 107 107 101 88 84 85 82 88 99 101 102 99 98 103 101 97 87 78 73 74 76 78 77 72 71
114 182 124 178 56 121 140 236 312 204 276 246 265 141 171 132 237 166 131 132 201 169 255 190 135 139 74 51 271 203 202 183 171 168 148 145 139 134 137 137 139 146 144 143 138 132 128 119 89 87 99 95 91 98 114 109 112 115 112 108 110 80 87 96 86 93 95 88 88 98 100 105 110 106 94 91 85 72 59 48 82 111 108 109 109 102 95 91 82 75 73 72 72 73 74 71 63
318 150 84 114 67 48 236 98 244 150 250 197 184 136 169 284 117 149 160 147 229 219 323 93 165 78 209 158 249 210 182 174 161 162 142 135 132 133 136 137 140 149 150 137 161 160 150 131 123 110 115 122 117 102 106 117 115 111 110 111 95 95 98 94 96 96 102 95 79 86 88 91 96 97 94 91 87 75 65 49 39 70 101 98 99 101 103 92 80 72 69 65 62 61 62 63 61
138 82 75 117 147 142 258 169 98 97 261 183 325 166 136 1 176 137 242 151 173 331 119 188 55 191 211 164 221 194 155 149 151 143 139 132 126 122 131 137 140 145 150 150 166 170 172 148 134 127 114 124 116 95 99 113 117 113 114 114 107 108 108 107 105 104 102 101 100 96 94 88 86 93 97 89 85 79 71 60 52 71 101 103 103 101 97 83 75 62 60 59 56 51 48 49 51
113 82 38 33 221 157 251 157 142 232 249 250 285 156 167 200 231 341 117 69 119 181 359 276 207 30 178 195 248 152 137 132 135 142 140 139 138 138 134 136 138 147 165 168 170 170 182 163 159 145 140 137 126 120 98 93 105 111 111 117 119 117 118 110 105 101 99 101 101 99 95 94 97 100 95 97 87 88 84 66 49 58 98 103 98 99 82 75 60 53 50 51 52 46 43 41 40
50 56 106 230 204 139 206 174 190 215 136 239 202 211 153 175 186 184 71 35 65 47 229 308 282 309 241 264 297 133 136 141 154 150 159 151 157 150 152 153 158 172 173 175 190 180 175 182 190 169 161 161 151 137 133 130 107 89 110 113 112 115 113 112 109 112 106 100 101 97 98 104 102 100 104 106 101 98 91 84 75 75 78 78 94 96 90 59 43 41 38 44 45 44 38 30 21
76 122 97 229 179 237 162 206 202 122 265 180 215 222 184 208 145 208 125 272 95 140 265 27 302 316 5 61 147 131 144 153 163 157 161 168 169 172 162 157 172 167 183 183 193 189 184 182 185 185 185 169 165 156 153 149 148 113 103 107 106 126 127 120 124 113 118 114 96 93 90 88 96 97 101 107 109 105 103 104 92 83 78 68 88 90 71 42 26 36 36 36 39 36 37 29 17
28 119 290 252 217 262 224 190 208 218 113 163 186 231 166 227 156 142 185 169 120 185 196 287 246 233 218 157 158 149 151 163 172 166 168 174 180 177 167 167 178 189 185 182 177 183 185 183 184 182 184 181 174 169 163 162 164 116 134 135 110 133 123 135 128 131 133 131 122 108 101 95 81 66 56 74 79 59 43 49 64 71 62 48 42 41 28 31 26 32 26 30 25 25 23 26 15
273 84 191 240 211 356 311 187 253 250 183 209 188 63 185 232 188 156 163 118 252 264 235 184 202 200 173 173 168 161 159 167 176 180 175 179 188 190 188 184 187 183 172 156 174 189 188 188 181 182 184 185 184 180 166 180 177 125 158 144 157 149 153 142 140 137 146 144 139 125 120 106 91 68 59 45 47 61 42 26 38 45 43 52 35 42 19 10 18 359 356 10 27 8 13 10 16
103 214 197 240 260 270 261 237 260 246 264 156 133 148 215 93 45 178 156 174 208 207 219 213 206 163 158 167 178 171 167 172 180 183 186 177 186 189 192 185 151 152 141 178 191 187 192 181 185 182 187 190 190 185 190 170 152 189 169 169 168 173 162 169 170 160 164 173 155 130 113 105 99 83 74 72 58 55 95 63 43 37 47 61 39 43 14 8 2 2 4 356 344 354 13 359 18
292 318 276 234 225 259 288 350 314 176 139 163 178 224 93 157 206 189 186 198 228 241 228 200 186 180 175 162 158 172 175 179 184 188 186 187 192 197 193 187 178 177 181 198 183 187 180 179 190 182 189 190 192 175 180 167 193 189 183 179 172 188 179 187 186 194 192 181 168 151 136 134 126 119 118 105 164 66 179 173 113 41 72 70 54 48 348 359 355 352 357 344 322 1 346 346 344
150 247 17 322 124 256 280 301 317 212 150 204 204 302 158 158 200 114 209 237 192 328 272 203 149 128 137 158 178 175 182 184 190 190 189 191 190 195 194 190 193 187 190 191 186 186 186 190 182 185 192 189 186 186 187 192 194 191 189 186 195 186 181 199 200 200 190 188 180 181 169 159 161 157 173 170 209 157 229 236 133 188 208 251 87 319 259 290 300 341 328 326 349 355 352 324 333
211 271 323 288 318 252 287 274 301 202 215 246 98 152 230 176 198 94 242 231 277 353 75 133 133 136 158 175 181 187 187 189 191 192 193 199 202 201 201 203 195 187 197 192 189 188 193 185 180 192 191 191 187 182 190 190 191 195 187 191 195 186 194 199 197 186 198 195 187 182 169 162 158 164 180 205 145 205 247 237 202 223 242 223 160 248 232 240 273 241 299 302 325 320 327 315 334
113 259 323 291 297 304 300 297 272 204 195 145 147 202 313 164 178 249 238 252 213 30 86 125 136 147 169 185 192 186 189 192 190 188 196 194 195 199 208 204 200 203 202 195 189 198 191 182 187 194 187 192 189 181 194 188 192 196 193 192 194 184 207 196 183 196 200 190 199 187 183 178 182 185 199 180 171 213 221 234 225 238 240 213 186 228 213 218 251 272 285 298 310 305 309 295 333
139 274 268 284 282 323 320 207 288 235 192 181 175 174 312 324 107 266 303 225 123 86 114 151 154 169 180 186 193 199 191 194 193 188 180 196 199 202 205 203 205 207 200 202 201 199 188 185 194 192 189 181 183 192 193 198 190 197 193 195 191 202 201 191 194 201 201 202 201 186 186 187 181 185 188 184 194 200 206 207 226 224 253 236 212 239 208 221 242 244 258 268 274 280 278 281 302
314 275 289 291 321 262 243 314 275 133 275 179 137 146 256 301 64 235 242 7 220 135 160 179 192 182 185 189 191 196 204 207 185 170 194 195 203 201 203 202 202 205 204 206 204 198 189 192 196 192 191 183 185 195 193 196 197 199 190 189 200 199 187 199 199 198 210 203 194 193 188 189 183 190 182 184 190 195 205 205 214 206 234 229 213 239 249 232 230 249 254 256 268 280 286 284 245
299 8 354 314 343 332 271 212 227 171 250 166 160 79 298 206 226 244 255 120 231 151 172 193 202 202 196 193 193 198 209 198 191 201 206 205 201 202 210 204 200 205 207 205 205 201 203 196 196 194 190 188 193 197 196 200 197 194 190 197 196 187 193 193 201 205 206 201 191 193 194 189 189 187 193 191 189 196 199 202 211 223 233 223 210 221 241 242 250 268 266 246 284 291 292 286 256
294 35 66 337 347 306 279 292 345 143 247 180 251 220 255 237 241 225 188 130 105 119 185 208 214 210 202 199 201 213 211 199 211 214 210 205 200 203 213 209 206 207 201 201 200 207 204 204 199 196 191 193 198 200 198 198 199 197 196 198 190 184 193 196 205 201 198 199 192 194 195 193 193 195 184 196 186 188 196 204 215 238 231 210 207 198 218 216 240 253 261 282 254 240 268 264 269
190 251 90 267 341 261 295 194 184 143 167 184 104 210 268 263 257 236 189 154 158 189 208 205 213 215 209 205 211 215 219 213 216 219 218 212 206 204 209 208 205 205 197 201 203 201 197 202 196 204 194 198 197 202 199 202 199 198 197 199 195 191 194 200 206 196 196 201 187 197 196 198 199 195 192 182 189 187 191 208 217 234 212 194 200 202 203 197 210 249 260 261 272 258 261 293 304
84 80 250 341 179 284 294 269 182 168 320 283 117 259 238 255 266 266 223 183 173 210 209 206 208 213 211 211 216 222 224 220 236 244 233 226 214 214 206 211 202 200 205 204 206 194 201 204 199 204 195 202 200 202 202 202 200 199 200 201 198 197 197 203 202 202 202 192 190 199 199 201 200 199 189 180 182 193 198 207 223 224 198 189 201 184 180 213 209 215 221 202 256 281 326 294 265
15 197 335 257 129 254 337 248 323 54 120 353 170 213 318 292 294 337 317 192 198 212 222 214 213 217 215 216 216 223 233 240 239 234 230 221 223 219 215 212 206 207 205 201 199 198 203 202 201 205 201 202 202 201 204 204 194 196 198 200 203 199 202 207 205 201 196 194 196 205 201 200 203 197 191 187 180 179 192 206 220 207 185 182 183 179 200 216 216 269 304 291 186 253 293 281 279
209 40 197 207 187 267 236 301 267 55 106 197 269 220 232 233 256 313 14 167 220 226 232 222 224 225 224 227 229 228 231 234 235 230 227 217 219 216 215 211 209 203 206 206 200 198 203 198 199 203 203 201 202 199 200 201 200 196 199 202 200 203 207 206 204 190 200 202 194 206 203 198 199 198 193 186 184 175 188 197 205 189 173 169 162 170 212 197 208 196 252 231 195 211 257 265 281
182 164 37 292 246 220 261 235 224 121 16 166 206 228 252 263 272 254 293 168 179 241 244 244 229 230 234 234 235 238 238 237 239 232 228 222 223 220 218 216 212 206 206 205 203 203 200 201 198 203 203 197 201 200 199 202 200 205 205 203 205 212 213 211 196 196 202 201 200 205 198 198 198 197 196 188 190 176 180 215 230 223 179 180 179 192 211 219 223 211 218 268 258 235 256 270 269
161 160 172 232 249 231 205 245 286 189 152 212 185 209 246 253 263 257 79 150 195 236 264 273 253 237 230 230 237 237 236 242 244 240 240 231 225 219 217 214 214 212 211 203 205 202 203 201 199 203 204 194 188 193 190 200 199 201 206 206 216 212 205 204 203 204 196 201 203 197 194 197 196 198 195 189 192 171 186 204 216 211 206 184 190 220 237 215 225 215 239 231 282 303 233 247 237
124 110 144 246 272 287 283 283 291 332 50 230 210 229 244 255 253 261 132 16 255 262 251 246 249 239 232 233 232 236 235 236 244 230 230 228 224 219 218 208 213 213 213 208 206 208 206 203 192 208 198 187 184 189 196 197 200 205 213 211 213 198 197 202 212 205 199 201 196 196 191 193 193 196 201 194 216 202 196 204 207 233 190 186 210 223 223 247 229 208 207 171 235 285 300 226 230
142 136 136 281 187 277 256 332 341 323 169 296 265 252 262 257 269 261 213 87 260 230 241 251 247 235 236 233 239 234 239 272 279 265 241 228 222 215 207 207 204 208 216 206 208 211 208 204 206 207 185 192 194 194 194 199 202 205 200 209 201 191 192 203 216 204 206 200 197 193 192 192 195 196 199 207 217 233 222 202 200 217 205 219 220 223 233 221 231 207 162 260 187 230 258 218 188
151 182 181 278 277 245 283 270 329 327 93 257 16 221 260 261 259 273 183 221 244 223 212 229 225 237 233 234 240 246 254 254 250 245 242 227 225 220 207 209 211 213 213 207 211 210 209 209 212 204 197 193 198 195 191 203 200 204 199 197 193 204 205 206 212 207 196 199 196 189 185 181 180 194 203 206 218 214 212 208 215 215 216 211 219 234 231 247 236 226 193 216 252 201 249 306 202
196 143 174 218 246 25 309 334 9 355 121 315 25 260 277 276 267 263 237 207 239 240 229 245 214 231 233 231 228 228 236 248 249 239 236 227 218 220 216 216 215 210 212 210 212 213 210 211 209 206 205 199 197 197 199 201 195 195 200 192 202 196 193 204 210 203 195 197 205 194 190 180 176 193 195 201 216 213 207 212 213 206 229 206 205 222 223 236 229 219 197 219 202 273 227 293 214
206 179 153 160 252 246 200 304 309 278 236 104 315 313 285 255 269 290 271 227 265 276 267 272 261 240 249 291 292 222 229 230 241 245 242 224 215 217 210 215 207 207 208 210 209 208 208 208 208 205 204 201 199 195 196 189 170 167 160 114 124 141 63 169 196 211 199 194 188 184 194 183 188 193 206 207 202 210 212 223 210 211 215 205 198 216 230 229 221 215 204 196 188 219 250 234 21
214 225 177 192 208 267 317 323 355 8 341 358 68 324 271 298 271 241 264 352 270 270 254 255 251 250 251 251 247 247 243 237 232 238 237 221 220 227 230 223 210 212 214 215 208 209 206 209 208 206 205 200 201 198 190 179 184 183 176 182 178 195 208 192 205 199 183 193 195 172 190 190 196 202 215 216 206 205 216 203 209 210 218 181 179 211 227 204 211 196 199 195 201 204 218 170 271
181 238 169 192 228 248 257 297 1 314 226 301 53 210 271 319 296 247 268 332 278 280 269 266 263 258 241 238 243 243 236 240 236 247 251 236 223 216 223 215 211 212 220 210 208 207 206 209 205 201 201 203 200 193 182 178 188 194 197 201 203 205 213 221 188 175 176 180 171 185 189 189 197 203 219 213 212 210 208 227 231 200 175 166 172 182 186 200 210 205 172 177 169 142 145 177 163
216 175 159 174 206 227 248 219 202 240 280 293 57 129 240 281 259 248 264 319 288 297 278 263 258 251 245 240 242 239 238 231 230 230 233 234 229 211 220 217 211 213 214 203 206 203 207 208 200 199 201 202 196 184 179 183 190 196 201 207 208 211 211 211 173 179 170 161 179 195 185 193 199 207 216 218 211 200 202 202 184 174 168 162 141 139 135 129 105 83 108 120 96 121 153 144 151
212 151 145 162 189 215 189 182 199 228 33 288 300 240 285 244 269 315 15 277 278 271 270 268 258 246 243 240 241 240 237 237 230 240 235 228 224 222 222 219 220 223 214 203 206 206 208 207 205 201 202 198 194 184 184 189 194 195 199 201 207 215 211 198 160 151 167 167 183 185 199 201 197 203 211 212 214 200 179 176 165 155 146 130 115 127 134 126 120 131 107 95 108 88 92 153 134
225 109 80 79 73 73 164 159 143 325 232 255 223 178 231 271 273 323 338 228 260 263 262 255 251 245 241 244 252 252 256 254 236 236 241 237 228 228 226 240 232 216 212 211 209 202 205 199 203 200 206 196 193 189 187 192 196 193 198 201 206 207 190 157 163 160 166 166 179 182 182 179 174 173 188 199 189 175 159 158 137 125 124 135 135 118 128 121 116 100 105 133 127 114 142 123 94
141 100 84 49 44 52 24 64 100 72 257 254 178 269 172 291 239 207 189 219 197 238 265 269 262 265 257 250 254 258 261 258 254 251 251 250 244 234 217 216 224 223 211 200 202 199 196 198 199 201 204 196 192 192 189 195 195 196 201 200 202 201 187 172 170 173 150 161 170 171 176 179 168 162 150 135 137 143 142 140 139 140 137 145 119 120 131 123 124 118 124 112 108 126 122 100 99
131 133 122 116 57 16 41 346 31 182 251 311 311 122 139 227 294 259 235 271 233 219 239 256 266 258 265 268 261 264 265 270 275 271 265 262 267 259 222 228 220 218 204 207 203 196 197 200 196 204 203 196 191 192 193 198 194 199 204 200 201 200 183 182 186 184 178 178 173 170 163 147 150 140 149 142 137 129 128 118 110 111 114 109 107 116 126 132 121 125 123 118 112 94 89 89 91
140 127 125 146 224 82 266 51 240 221 226 328 31 180 24 241 228 273 269 254 271 220 219 235 246 265 269 271 269 264 272 290 283 273 268 260 242 236 226 231 219 217 210 206 205 200 201 199 198 201 208 195 193 191 196 196 195 200 199 201 203 194 188 190 190 188 181 178 170 156 158 164 151 145 166 146 154 145 137 129 130 127 122 125 122 114 116 112 117 117 117 99 96 95 96 97 91
163 170 154 142 155 168 224 222 339 317 287 257 219 95 272 284 292 235 252 263 247 247 229 238 246 254 265 269 290 291 281 270 272 266 261 254 243 234 225 216 212 212 214 208 204 198 200 200 201 203 212 195 195 192 195 195 201 200 198 200 198 186 192 191 193 184 181 178 171 170 171 167 170 173 169 173 162 141 123 122 121 118 130 113 109 112 106 100 101 102 93 93 80 76 82 81 83
190 116 165 176 161 169 196 173 209 215 215 261 283 77 233 127 251 242 232 257 290 287 248 248 250 254 265 282 283 281 277 273 252 254 252 253 259 258 248 238 225 217 211 210 204 204 187 203 198 206 209 201 192 197 193 199 201 199 199 199 195 188 191 191 191 183 173 172 176 171 177 172 172 171 167 147 145 131 127 122 124 126 109 115 114 103 94 89 87 85 81 84 75 73 81 89 86
252 188 68 152 215 108 158 205 153 204 241 278 212 210 192 188 265 283 232 262 275 273 275 256 268 257 262 280 268 264 266 268 254 247 264 270 266 289 288 276 261 236 236 222 203 193 194 210 207 209 210 200 199 197 201 199 201 196 194 194 196 190 188 184 179 173 175 175 173 174 173 172 164 147 133 137 140 136 133 122 114 106 112 108 103 103 100 94 90 94 92 89 86 69 90 81 85
203 119 205 205 122 117 86 52 17 70 52 251 133 306 283 302 306 283 284 298 272 273 264 261 266 271 277 266 267 260 255 261 265 250 250 268 304 289 258 262 263 241 235 215 210 198 196 197 199 213 224 220 205 204 201 199 198 192 197 195 190 186 182 181 177 175 173 172 167 165 160 151 137 143 143 140 134 123 123 120 115 112 108 110 103 101 102 103 105 103 105 103 92 76 83 79 69
115 190 215 116 91 108 148 217 0 162 208 254 75 237 295 337 274 322 332 279 275 274 264 270 268 271 282 261 257 261 263 253 258 260 259 261 263 270 273 251 231 219 209 219 234 217 218 200 189 195 199 203 213 205 204 199 195 197 193 195 191 187 182 180 172 170 162 152 148 137 127 136 150 144 138 134 127 125 117 117 117 114 112 106 111 109 109 113 111 97 103 91 96 99 93 80 65
142 190 204 147 213 225 294 108 225 183 237 270 296 298 257 209 238 331 305 259 264 283 295 297 278 265 246 256 268 272 273 279 264 253 259 263 256 256 254 248 258 254 240 241 257 200 231 242 219 193 202 210 206 206 204 205 200 195 192 190 185 181 179 173 167 159 155 155 155 154 154 145 132 136 134 133 129 124 122 118 120 119 114 111 107 111 113 110 111 107 99 102 98 96 85 82 63
70 80 126 255 113 181 130 201 165 124 253 17 281 31 254 189 218 199 273 263 241 268 277 274 265 262 260 261 264 279 281 257 253 235 232 233 239 239 236 241 252 257 258 239 219 175 216 214 204 213 218 206 198 203 200 201 196 185 179 174 179 174 168 162 160 157 159 160 158 150 142 142 148 142 138 133 133 134 134 128 126 123 115 112 110 108 114 116 110 101 109 98 93 92 85 84 83
145 127 196 190 74 235 108 81 145 185 191 181 251 295 264 252 212 185 212 250 271 246 242 262 269 274 262 264 286 289 280 272 257 246 234 231 233 237 242 252 267 290 276 268 231 207 212 202 226 213 206 200 201 195 186 189 166 171 162 168 164 162 162 157 155 162 155 152 148 145 146 141 133 140 138 135 136 137 134 131 129 122 121 126 126 127 130 122 103 98 83 97 94 85 89 82 84
175 172 196 172 129 153 177 236 49 72 135 239 147 265 266 267 170 202 215 234 236 274 325 273 269 271 291 307 300 287 286 274 255 252 238 248 256 259 270 291 287 277 230 217 247 236 188 190 209 198 221 215 203 187 186 166 169 164 170 164 165 161 153 150 149 146 143 142 144 142 136 134 138 139 139 135 132 132 130 131 123 120 124 126 129 125 131 110 105 99 86 82 85 87 87 85 83